Погода в Великих Борках

Украина / Тернопольская область     49°31′14″N   25°45′15″E
темп.,
°C
ветер,
м/с
пор.,
м/с
влажн.,
%
обл.,
%
осадки,
мм/ч
давл.,
гПа
погр.,
м
5 августа, чт
чт500:00+15св2291100 0.1 101533
03:00+15вюв3486100 0.1 101461
06:00+16ююв3490100 0.0 101257
09:00+21ююв357599 0.0 1011249
12:00+25ююв45547 0.8 10101087
15:00+28ююв564010 0.8 10081889
18:00+24вюв355944 0.0 1006121
21:00+19зюз5798100 11.9 1005263
6 августа, пт
пт600:00+17св229934 1.4 100356
03:00+16ююв48944 1.4 1002163
06:00+15ю37925 0.0 1002151
09:00+19ю47817 0.1 1002361
12:00+22з896227 0.6 10031332
15:00+20зсз896842 1.1 10041166
18:00+20зсз8106415 0.0 10061073
21:00+16з410777 0.0 1008591
7 августа, сб
сб700:00+13зюз38935 0.0 1009164
03:00+12зюз37930 0.0 1009142
06:00+12зюз37910 0.0 1010125
09:00+18зюз46675 0.0 1011366
12:00+22зюз56540 0.0 10111373
15:00+24зюз565057 0.0 10111921
18:00+24з364910 0.0 10121806
21:00+19св22715 0.0 101311
8 августа, вс
вс800:00+17в22780 0.0 101417
03:00+16юв348081 0.0 101454
06:00+15ююв368122 0.0 101488
09:00+21ююв476485 0.0 1014240
12:00+26ююв674691 0.0 1014641
15:00+30ю56335 0.0 10141218
18:00+29ююв57400 0.0 1013704
21:00+22ююв410572 0.0 1015178
9 августа, пн
пн900:00+20ююв412611 0.0 1015188
03:00+18ююв33655 0.0 101542
06:00+17ююз357021 0.1 101688
09:00+19св61088100 1.1 1017284
12:00+23з327246 0.3 1018765
15:00+26сз325889 0.3 10181435
18:00+24сз346492 0.3 1018960
21:00+20ссз3685100 0.3 1019113